Погода в Крещенке

Погода в Крещенке : погода сейчас, прогноз погоды и архив. Всё, что Вы хотите узнать о погоде в Крещенке!

Хотите узнать прогноз погоды в Крещенке? Тогда Вам сюда: Погода в Крещенке

Поиск расширенной информации на нашем сайте:

Полезная информация: Подключение к Таксик приложения на google play Таксик.

Другие новости

Новости СМИ2

Главная страница сайта

Новости сайта

02.10.2013

Напоминаем, что на нашем новом сайте вы можете получить высокодетализированные прогнозы погоды по пунктам России, СНГ и мира (включающие важные для авиации метеовеличины, такие как направление и скорость ветра, видимость, явления погоды, количество и форма облачности, нижняя и верхняя граница облачности), а также ознакомиться с разнообразными материалами по авиационной метеорологии и подборкой полезных ссылок на эту тему.

Сайт Метеоцентр.Азия посвящён разработке технологий оптимизации авиаметеорологического обслуживания, включая проектирование и перспективное создание нескольких автоматизированных авиаметеорологических систем:
- система выпуска высокодетальных прогностических карт явлений погоды для нижнего воздушного пространства по России и ближнему зарубежью;
- система верификации прогнозов TAF (выпускаемых синоптиками официальных АМСГ РФ и ближнего зарубежья) и AUTOTAF (выпускаемых сайтом Метеоцентр.Азия) - выявление ошибок, онлайн-сопоставление с фактической погодой METAR, автоматическое внесение коррективов в прогнозы при резком отклонении фактической погоды от прогноза, подсчёт оправдываемости прогнозов по элементам и в целом;
- система обработки, анализа и отображения авиаметеорологической информации для применения провайдерами метеорологической информации.

Рекомендуем: Суши Винница купить посуда для Суши.

Погода в Крещенке - сегодня

Время (UTC), дата Ветер
(°,м/с) 
Видим.   Явления Облачность Т
(°С)
Тd
(°С)
f(%) Тe
(°С)
Pmin
(гПа)
dP
(гПа)
Po
(мм)
O2
(г/м3)
Тmin Tmax R s Состояние
почвы
09 24.03.17 130 (ЮВ) 20000 м    ясно 
+5 -9.4 34 +3  1026.4  -3.7  758  301           
12 24.03.17 130 (ЮВ) 20000 м    ясно 
+4 -10.6 34 +1  1022.9  -3.4  755  301    +5.5       
15 24.03.17 130 (ЮВ) 20000 м    ясно 
-1.7 -9.7 54 -4  1021  -2.3  753  306           
18 24.03.17 130 (ЮВ) 20000 м    ясно 
-4.4 -10.3 63 -6  1018.2  -2.9  751  309           
21 24.03.17 150 (ЮВ) 20000 м    ясно 
-1.2 -8.8 56 -2  1014.7  -3.3  749  304           
00 25.03.17 150 (ЮВ) 3{10}  20000 м  {ливн. осадки}  10/10 300 м кучево-дожд. 
[Cb cap]
-1.3 -2.5 92 -3  1012.9  -1.7  748  303  -4.4    75  неравномерный
сухой снег
100% 
03 25.03.17 200 (Ю) 20000 м  {ливн. осадки}  10/10 300 м кучево-дожд. 
[Cb cap]
+1.2 -1.2 84 -1  1011.7  -1  747  300           
06 25.03.17 220 (ЮЗ) 20000 м  в посл. час ливневой снег  10/10 300 м кучево-дожд. 
[Cb cap]
+1.8 -0.2 87 1011.2  -0.5  746  299           
09 25.03.17 240 (ЮЗ) 5{10}  10 км  слаб. ливневой дождь  10/10 300 м кучево-дожд. 
[Cb cap]
+1 -1.2 85 -2  1012.3  747  300           
12 25.03.17 250 (З) 6{11}  20000 м  {ливн. осадки}  10/10 300 м кучево-дожд. 
[Cb cap]
-0.5 -3.1 83 -4  1014.7  2.3  749  303    +2.4  0.0     
15 25.03.17 240 (ЮЗ) 20000 м    ясно 
-2.3 -5.8 77 -4  1017.6  2.8  751  306           
18 25.03.17 260 (З) 20000 м    ясно 
-4.6 -7.1 83 -7  1020.2  2.4  753  309           
21 25.03.17 280 (З) 20000 м    ясно 
-7 -8.6 88 -8  1022.6  2.2  754  313           
00 26.03.17 280 (З) 20000 м    3/0 верхняя 
[Ci fib]
-10.8 -12.2 89 -11  1025.4  2.5  756  318  -10.9      75  неравномерный
мокрый или
старый снег
100% 
03 26.03.17 120 (ЮВ) 20000 м    4/0 верхняя 
[Ci fib]
-5.8 -7.4 88 -5  1026.1  757  312  -11.4         
06 26.03.17 180 (Ю) 20000 м    3/0 верхняя 
[Ci fib]
+1.5 -5.1 61 1025.7  0.1  757  304           
09 26.03.17 200 (Ю) 20000 м    6/0 верхняя 
[Ci fib]
+2.9 -4.3 59 +2  1023.8  -1.9  756  302           
12 26.03.17 180 (Ю) 20000 м    8/0 верхняя 
[Ci fib]
+1.6 -4.1 66 +1  1021.4  -2.4  754  302    +3.1       
15 26.03.17 140 (ЮВ) 20000 м    ясно 
-2.9 -5.6 82 -4  1019  -2.6  752  307           
18 26.03.17 100 (В) 20000 м    ясно 
-6.5 -7.4 93 -6  1017.3  -1.9  751  311           
21 26.03.17 110 (В) 20000 м    8/0 верхняя 
[Ci fib]
-7.1 -8.1 93 -9  1014.8  -2.5  749  311           
00 27.03.17 080 (В) 20000 м    10/0 средняя 
[Ac As]
-5.4 -6.4 93 -5  1012.9  -1.8  747  308  -8.2      74  неравномерный
мокрый или
старый снег
100% 
03 27.03.17 тихо ()   20000 м    10/10 600 м 
[Sc]
-2 -4.4 84 -2  1012.4  -0.2  747  304           
06 27.03.17 220 (ЮЗ) 20000 м    9/9 600 м 
[Sc]
+0.5 -4.1 71 1012.4  0.1  747  301           
09 27.03.17 260 (З) 20000 м    10/10 600 м 
[Sc]
+1 -2.8 76 -1  1014.1  1.7  749  301           
Время (UTC), дата Ветер
(°,м/с) 
Видим.   Явления Облачность Т
(°С)
Тd
(°С)
f(%) Тe
(°С)
Pmin
(гПа)
dP
(гПа)
Po
(мм)
O2
(г/м3)
Тmin Tmax R s Состояние
почвы

Для получения пояснительной информации подведите курсор к названию столбца.

ПОГОДА в Крещенке - архив

Всё, что Вы хотите узнать о погоде в Крещенке - удобно и подробно!

Выберите нужную дату (начиная с 1 января 2015* года) и нажмите кнопку "Найти".
Будут отображены архивные сводки погоды по пункту Крещенка, начиная с указанной даты.


Отображать данные в формате CSV (для использования в таблицах Excel)


Внимание! Наш архив погоды предназначен исключительно для личного некоммерческого использования в познавательных целях. Если Вам необходимы официальные справки о состоянии погоды (для производственных, юридических, коммерческих и т.п. целей), обращайтесь в органы Росгидромета.

*Примечание: данная дата относится к архиву по метеостанциям СССР (Россия, СНГ, Балтия).
Архив по метеостанциям Зарубежной Европы и Азии (кроме Китая) хранится 10 дней, по другим регионам земного шара (Китай, Африка, Америка, Австралия, Океания) - 1 день.

Крещенка - район местоположения метеостанции


Название, широта, долгота, высота метеостанции:
Крещенка 55.9°ш. 80°д. 129 м над ур. моря [Российская Федерация]

Дополнительная информация

В oтличие oт бoльшинства пoгoдных сайтoв мы публикуем пoдрoбную метеoинфoрмацию в детальнoм прoфессиoнальнoм фoрмате.

Характеристики температуры и влажнoсти вoздуха измеряются на высoте 2 м в тени вдали oт зданий и деревьев.
Скoрoсть ветра измеряется на высoте 10 м (на урoвне рoста челoвека скoрoсть ветра ниже в 1.5-2 раза). Если метеoстанция нахoдится в гoрoде или в лесу, тo скoрoсть ветра занижена на 2-4 м/с пo сравнению с oткрытым местoм. Скoрoсть ветра над акватoриями крупных рек и oзёр, а также на вершинах хoлмoв на 2-5 м/с выше, чем в oбычных услoвиях.
Атмoсфернoе давление в разных тoчках местнoсти мoжет значительнo oтличаться oт давления на метеoстанции, в зависимoсти oт услoвий рельефа (при пoдъёме на 10 м давление пoнижается примернo на 1 мм рт.ст.).